| time (UTC) | temp F | wind direction | speed knots | gust knots | rain 1hr in | rain 24hr in | rain mn in | humidity % | barometer mb |
| 20260510230905 | 49 | 335 | 1.7 | 6.1 | 0.00 | 0.00 | 0.00 | 47 | 991.2 |
| 20260510230006 | 49 | 332 | 2.6 | 7.8 | 0.00 | 0.00 | 0.00 | 46 | 991.0 |
| 20260510225406 | 49 | 308 | 1.7 | 7.0 | 0.00 | 0.00 | 0.00 | 46 | 991.0 |
| 20260510224505 | 50 | 45 | 1.7 | 7.0 | 0.00 | 0.00 | 0.00 | 45 | 991.0 |
| 20260510223603 | 50 | 50 | 1.7 | 20.9 | 0.00 | 0.00 | 0.00 | 45 | 990.8 |
| 20260510222916 | 50 | 56 | 1.7 | 20.9 | 0.00 | 0.00 | 0.00 | 45 | 990.7 |
| 20260510221803 | 53 | 62 | 1.7 | 8.7 | 0.00 | 0.00 | 0.00 | 42 | 990.8 |
| 20260510220906 | 52 | 310 | 0.9 | 9.6 | 0.00 | 0.00 | 0.00 | 41 | 990.7 |
| 20260510220005 | 53 | 314 | 2.6 | 7.0 | 0.00 | 0.00 | 0.00 | 41 | 990.5 |
| 20260510215405 | 53 | 204 | 1.7 | 7.0 | 0.00 | 0.00 | 0.00 | 40 | 990.5 |
| 20260510214717 | 54 | 287 | 2.6 | 9.6 | 0.00 | 0.00 | 0.00 | 41 | 990.5 |
| 20260510213819 | 53 | 6 | 3.5 | 9.6 | 0.00 | 0.00 | 0.00 | 39 | 990.4 |
| 20260510212703 | 53 | 350 | 3.5 | 13.0 | 0.00 | 0.00 | 0.00 | 40 | 990.3 |
| 20260510211805 | 53 | 15 | 7.0 | 13.0 | 0.00 | 0.00 | 0.00 | 40 | 990.2 |
| 20260510210904 | 53 | 7 | 3.5 | 16.5 | 0.00 | 0.00 | 0.00 | 40 | 990.2 |
| 20260510210219 | 53 | 1 | 5.2 | 16.5 | 0.00 | 0.00 | 0.00 | 38 | 989.9 |
| 20260510205615 | 53 | 10 | 3.5 | 14.8 | 0.00 | 0.00 | 0.00 | 38 | 990.1 |
| 20260510204503 | 53 | 297 | 1.7 | 13.0 | 0.00 | 0.00 | 0.00 | 39 | 990.0 |
| 20260510203815 | 52 | 296 | 6.1 | 13.0 | 0.00 | 0.00 | 0.00 | 37 | 989.9 |
| 20260510202917 | 53 | 275 | 3.5 | 13.0 | 0.00 | 0.00 | 0.00 | 36 | 989.8 |
| 20260510201805 | 55 | 325 | 1.7 | 8.7 | 0.00 | 0.00 | 0.00 | 36 | 989.6 |
| 20260510200903 | 54 | 70 | 0.9 | 9.6 | 0.00 | 0.01 | 0.00 | 37 | 989.5 |
| 20260510200003 | 54 | 345 | 3.5 | 14.8 | 0.00 | 0.01 | 0.00 | 35 | 989.8 |
| 20260510195403 | 54 | 314 | 2.6 | 9.6 | 0.00 | 0.01 | 0.00 | 36 | 989.8 |
| 20260510194503 | 54 | 298 | 4.3 | 9.6 | 0.00 | 0.02 | 0.00 | 34 | 989.7 |
| 20260510193820 | 54 | 343 | 2.6 | 9.6 | 0.00 | 0.09 | 0.00 | 37 | 989.7 |
| 20260510192705 | 54 | 11 | 4.3 | 12.2 | 0.00 | 0.12 | 0.00 | 37 | 989.8 |
| 20260510191803 | 53 | 307 | 3.5 | 14.8 | 0.00 | 0.12 | 0.00 | 40 | 989.9 |
| 20260510191118 | 53 | 248 | 1.7 | 9.6 | 0.00 | 0.12 | 0.00 | 41 | 989.9 |
| 20260510190003 | 53 | 300 | 3.5 | 15.6 | 0.00 | 0.12 | 0.00 | 42 | 989.8 |
| 20260510185405 | 53 | 282 | 7.0 | 15.6 | 0.00 | 0.12 | 0.00 | 41 | 989.7 |
| 20260510184504 | 53 | 291 | 1.7 | 11.3 | 0.00 | 0.12 | 0.00 | 44 | 989.8 |
| 20260510183816 | 53 | 297 | 1.7 | 13.0 | 0.00 | 0.12 | 0.00 | 44 | 989.8 |
| 20260510182919 | 52 | 343 | 3.5 | 12.2 | 0.00 | 0.12 | 0.00 | 47 | 989.6 |
| 20260510181805 | 52 | 56 | 5.2 | 13.9 | 0.00 | 0.12 | 0.00 | 43 | 989.6 |
| 20260510180903 | 52 | 323 | 3.5 | 13.0 | 0.00 | 0.12 | 0.00 | 44 | 989.5 |
| 20260510180005 | 52 | 347 | 7.8 | 13.0 | 0.00 | 0.12 | 0.00 | 44 | 989.4 |
| 20260510175406 | 52 | 53 | 3.5 | 14.8 | 0.00 | 0.12 | 0.00 | 45 | 989.4 |
| 20260510174714 | 52 | 31 | 3.5 | 14.8 | 0.00 | 0.12 | 0.00 | 43 | 989.2 |
| 20260510173606 | 52 | 9 | 2.6 | 15.6 | 0.00 | 0.12 | 0.00 | 45 | 989.2 |
| 20260510172708 | 52 | 339 | 3.5 | 15.6 | 0.00 | 0.12 | 0.00 | 47 | 989.1 |
| 20260510171805 | 51 | 334 | 3.5 | 13.0 | 0.00 | 0.12 | 0.00 | 47 | 989.0 |
| 20260510170903 | 51 | 256 | 3.5 | 18.2 | 0.00 | 0.12 | 0.00 | 46 | 988.9 |
| 20260510170005 | 51 | 1 | 3.5 | 14.8 | 0.00 | 0.12 | 0.00 | 48 | 988.9 |
| 20260510165405 | 51 | 328 | 8.7 | 14.8 | 0.00 | 0.12 | 0.00 | 50 | 988.7 |
| 20260510164505 | 52 | 262 | 4.3 | 13.0 | 0.00 | 0.12 | 0.00 | 51 | 988.7 |
| 20260510163605 | 50 | 312 | 7.0 | 14.8 | 0.00 | 0.12 | 0.00 | 52 | 988.6 |
| 20260510162703 | 50 | 308 | 6.1 | 15.6 | 0.00 | 0.12 | 0.00 | 55 | 988.5 |
| 20260510161806 | 50 | 311 | 8.7 | 18.2 | 0.00 | 0.12 | 0.00 | 56 | 988.5 |
| 20260510160906 | 51 | 319 | 6.1 | 12.2 | 0.00 | 0.12 | 0.00 | 56 | 988.4 |
| 20260510160005 | 51 | 303 | 5.2 | 14.8 | 0.00 | 0.12 | 0.00 | 56 | 988.5 |
| 20260510155613 | 51 | 243 | 0.0 | 9.6 | 0.00 | 0.12 | 0.00 | 57 | 988.5 |
| 20260510154503 | 51 | 337 | 3.5 | 11.3 | 0.00 | 0.12 | 0.00 | 56 | 988.3 |
| 20260510153606 | 51 | 334 | 1.7 | 14.8 | 0.00 | 0.12 | 0.00 | 57 | 988.1 |
| 20260510152703 | 51 | 338 | 3.5 | 12.2 | 0.00 | 0.12 | 0.00 | 58 | 988.0 |
| 20260510151805 | 51 | 339 | 5.2 | 17.4 | 0.00 | 0.12 | 0.00 | 58 | 987.8 |
| 20260510150905 | 51 | 354 | 5.2 | 15.6 | 0.00 | 0.12 | 0.00 | 56 | 987.6 |
| 20260510150006 | 50 | 312 | 8.7 | 15.6 | 0.00 | 0.12 | 0.00 | 57 | 987.5 |
| 20260510145405 | 51 | 318 | 7.8 | 14.8 | 0.00 | 0.12 | 0.00 | 57 | 987.3 |
| 20260510144503 | 52 | 304 | 6.1 | 13.0 | 0.00 | 0.12 | 0.00 | 55 | 987.3 |
| 20260510143605 | 52 | 311 | 2.6 | 13.9 | 0.00 | 0.12 | 0.00 | 54 | 987.2 |
| 20260510142703 | 52 | 305 | 2.6 | 11.3 | 0.00 | 0.12 | 0.00 | 54 | 987.1 |
| 20260510141804 | 51 | 271 | 3.5 | 12.2 | 0.00 | 0.12 | 0.00 | 53 | 987.0 |
| 20260510140904 | 51 | 279 | 6.1 | 10.4 | 0.00 | 0.12 | 0.00 | 54 | 986.8 |
| 20260510140004 | 51 | 326 | 1.7 | 13.9 | 0.00 | 0.12 | 0.00 | 55 | 986.8 |
| 20260510135403 | 51 | 31 | 3.5 | 13.0 | 0.00 | 0.12 | 0.00 | 56 | 986.8 |
| 20260510134503 | 51 | 242 | 4.3 | 9.6 | 0.00 | 0.12 | 0.00 | 56 | 986.8 |
| 20260510133605 | 53 | 108 | 0.9 | 8.7 | 0.00 | 0.12 | 0.00 | 56 | 986.6 |
| 20260510132705 | 51 | 326 | 3.5 | 13.9 | 0.00 | 0.12 | 0.00 | 55 | 986.5 |
| 20260510132019 | 50 | 334 | 5.2 | 13.9 | 0.00 | 0.12 | 0.00 | 56 | 986.4 |
| 20260510131116 | 51 | 32 | 3.5 | 11.3 | 0.00 | 0.12 | 0.00 | 56 | 986.3 |
| 20260510130008 | 50 | 318 | 3.5 | 9.6 | 0.00 | 0.12 | 0.00 | 57 | 986.2 |
| 20260510125405 | 50 | 46 | 1.7 | 10.4 | 0.00 | 0.12 | 0.00 | 59 | 986.2 |
| 20260510124718 | 50 | 332 | 1.7 | 10.4 | 0.00 | 0.12 | 0.00 | 59 | 986.1 |
| 20260510123815 | 51 | 57 | 1.7 | 5.2 | 0.00 | 0.12 | 0.00 | 60 | 986.0 |
| 20260510122704 | 49 | 13 | 2.6 | 11.3 | 0.00 | 0.12 | 0.00 | 63 | 986.1 |
| 20260510121803 | 48 | 321 | 2.6 | 9.6 | 0.00 | 0.12 | 0.00 | 65 | 985.8 |
| 20260510120903 | 47 | 31 | 1.7 | 9.6 | 0.00 | 0.12 | 0.00 | 66 | 985.8 |
| 20260510120007 | 46 | 64 | 3.5 | 9.6 | 0.00 | 0.12 | 0.00 | 66 | 985.7 |
| 20260510115406 | 46 | 191 | 3.5 | 9.6 | 0.00 | 0.12 | 0.00 | 68 | 985.6 |
| 20260510114506 | 45 | 316 | 3.5 | 9.6 | 0.00 | 0.12 | 0.00 | 71 | 985.5 |
| 20260510113605 | 43 | 295 | 3.5 | 9.6 | 0.00 | 0.12 | 0.00 | 75 | 985.4 |
| 20260510112918 | 42 | 315 | 1.7 | 10.4 | 0.00 | 0.12 | 0.00 | 79 | 985.3 |
| 20260510111803 | 40 | 326 | 1.7 | 6.1 | 0.00 | 0.12 | 0.00 | 81 | 985.1 |
| 20260510110905 | 40 | 289 | 1.7 | 7.0 | 0.00 | 0.12 | 0.00 | 82 | 985.0 |
| 20260510110005 | 39 | 311 | 2.6 | 7.8 | 0.00 | 0.12 | 0.00 | 83 | 984.8 |
| 20260510105405 | 39 | 307 | 1.7 | 7.0 | 0.00 | 0.12 | 0.00 | 83 | 984.7 |
| 20260510104505 | 38 | 308 | 0.9 | 7.0 | 0.00 | 0.12 | 0.00 | 84 | 984.6 |
| 20260510103603 | 38 | 316 | 1.7 | 7.0 | 0.00 | 0.12 | 0.00 | 85 | 984.4 |
| 20260510102705 | 37 | 332 | 1.7 | 5.2 | 0.00 | 0.12 | 0.00 | 86 | 984.3 |
| 20260510102016 | 37 | 289 | 1.7 | 4.3 | 0.00 | 0.12 | 0.00 | 86 | 984.1 |
| 20260510100903 | 37 | 326 | 0.0 | 3.5 | 0.00 | 0.12 | 0.00 | 86 | 984.0 |
| 20260510100005 | 37 | 237 | 1.7 | 2.6 | 0.00 | 0.12 | 0.00 | 86 | 983.8 |
| 20260510095405 | 37 | 275 | 1.7 | 5.2 | 0.00 | 0.12 | 0.00 | 85 | 983.6 |
| 20260510094508 | 37 | 321 | 1.7 | 4.3 | 0.00 | 0.12 | 0.00 | 85 | 983.6 |
| 20260510093606 | 37 | 327 | 1.7 | 3.5 | 0.00 | 0.12 | 0.00 | 85 | 983.3 |
| 20260510092914 | 37 | 313 | 0.9 | 6.1 | 0.00 | 0.12 | 0.00 | 85 | 983.3 |
| 20260510091804 | 38 | 295 | 0.0 | 5.2 | 0.00 | 0.12 | 0.00 | 84 | 983.2 |
| 20260510090906 | 38 | 281 | 1.7 | 7.0 | 0.00 | 0.12 | 0.00 | 84 | 983.1 |
| 20260510090005 | 38 | 307 | 1.7 | 7.0 | 0.00 | 0.12 | 0.00 | 83 | 982.9 |
| 20260510085405 | 38 | 278 | 1.7 | 5.2 | 0.00 | 0.12 | 0.00 | 83 | 982.9 |
| 20260510084505 | 38 | 179 | 0.0 | 11.3 | 0.00 | 0.12 | 0.00 | 82 | 982.7 |
| 20260510083605 | 38 | 347 | 1.7 | 7.0 | 0.00 | 0.12 | 0.00 | 82 | 982.6 |
| 20260510082705 | 39 | 13 | 3.5 | 7.0 | 0.00 | 0.12 | 0.00 | 81 | 982.5 |
| 20260510081805 | 39 | 198 | 1.7 | 4.3 | 0.00 | 0.12 | 0.00 | 81 | 982.5 |
| 20260510080905 | 39 | 35 | 0.9 | 6.1 | 0.00 | 0.12 | 0.00 | 81 | 982.3 |
| 20260510080004 | 39 | 225 | 1.7 | 6.1 | 0.00 | 0.12 | 0.00 | 81 | 982.3 |
| 20260510075406 | 39 | 285 | 1.7 | 8.7 | 0.00 | 0.12 | 0.00 | 81 | 982.3 |
| 20260510074505 | 39 | 242 | 1.7 | 8.7 | 0.00 | 0.12 | 0.00 | 82 | 982.2 |
| 20260510073605 | 38 | 285 | 0.9 | 3.5 | 0.00 | 0.12 | 0.00 | 82 | 982.2 |
| 20260510072706 | 39 | 288 | 0.9 | 5.2 | 0.00 | 0.12 | 0.00 | 81 | 982.0 |
| 20260510071803 | 38 | 329 | 0.9 | 2.6 | 0.00 | 0.12 | 0.00 | 80 | 981.8 |
| 20260510070903 | 39 | 303 | 0.0 | 4.3 | 0.00 | 0.12 | 0.00 | 79 | 981.7 |
| 20260510070005 | 40 | 292 | 0.0 | 3.5 | 0.00 | 0.12 | 0.00 | 78 | 981.5 |
| 20260510065405 | 40 | 336 | 1.7 | 4.3 | 0.00 | 0.12 | 0.00 | 77 | 981.5 |
| 20260510064506 | 40 | 342 | 0.9 | 6.1 | 0.00 | 0.12 | 0.00 | 76 | 981.4 |
| 20260510063604 | 41 | 294 | 0.0 | 6.1 | 0.00 | 0.12 | 0.00 | 75 | 981.5 |
| 20260510062705 | 41 | 47 | 1.7 | 7.0 | 0.00 | 0.12 | 0.00 | 74 | 981.5 |
| 20260510061806 | 42 | 241 | 0.9 | 7.0 | 0.00 | 0.12 | 0.00 | 73 | 981.4 |
| 20260510061116 | 41 | 347 | 1.7 | 5.2 | 0.00 | 0.12 | 0.00 | 73 | 981.3 |
| 20260510060005 | 42 | 297 | 3.5 | 10.4 | 0.00 | 0.12 | 0.00 | 72 | 981.2 |
| 20260510055404 | 42 | 298 | 1.7 | 10.4 | 0.00 | 0.12 | 0.00 | 72 | 981.1 |
| 20260510054717 | 42 | 53 | 3.5 | 7.0 | 0.00 | 0.12 | 0.00 | 72 | 981.2 |
| 20260510053603 | 42 | 292 | 3.5 | 9.6 | 0.00 | 0.12 | 0.00 | 72 | 981.1 |
| 20260510052703 | 42 | 320 | 1.7 | 9.6 | 0.00 | 0.12 | 0.00 | 71 | 981.0 |
| 20260510051804 | 42 | 40 | 1.7 | 8.7 | 0.00 | 0.12 | 0.00 | 71 | 980.9 |
| 20260510051116 | 42 | 276 | 2.6 | 7.8 | 0.00 | 0.12 | 0.00 | 72 | 980.8 |
| 20260510050214 | 42 | 344 | 4.3 | 7.8 | 0.00 | 0.12 | 0.00 | 73 | 980.6 |
| 20260510045403 | 42 | 149 | 0.9 | 12.2 | 0.00 | 0.12 | 0.00 | 74 | 980.7 |
| 20260510044503 | 42 | 295 | 3.5 | 13.0 | 0.00 | 0.12 | 0.00 | 74 | 980.5 |
| 20260510043605 | 43 | 262 | 3.5 | 10.4 | 0.00 | 0.12 | 0.00 | 73 | 980.3 |
| 20260510042703 | 43 | 245 | 1.7 | 8.7 | 0.00 | 0.12 | 0.00 | 73 | 980.2 |
| 20260510041804 | 42 | 300 | 3.5 | 13.0 | 0.00 | 0.12 | 0.00 | 74 | 980.0 |
| 20260510040904 | 43 | 16 | 3.5 | 13.0 | 0.00 | 0.12 | 0.00 | 74 | 979.9 |
| 20260510040005 | 43 | 54 | 3.5 | 9.6 | 0.00 | 0.12 | 0.00 | 75 | 979.8 |
| 20260510035408 | 43 | 336 | 1.7 | 11.3 | 0.00 | 0.12 | 0.00 | 74 | 979.7 |
| 20260510034505 | 44 | 288 | 6.1 | 11.3 | 0.00 | 0.12 | 0.00 | 74 | 979.6 |
| 20260510033603 | 44 | 276 | 1.7 | 9.6 | 0.00 | 0.12 | 0.00 | 73 | 979.4 |
| 20260510032706 | 44 | 222 | 2.6 | 9.6 | 0.00 | 0.12 | 0.00 | 71 | 979.1 |
| 20260510031803 | 45 | 294 | 2.6 | 7.0 | 0.00 | 0.12 | 0.00 | 70 | 979.1 |
| 20260510030905 | 44 | 302 | 3.5 | 7.0 | 0.00 | 0.12 | 0.00 | 71 | 979.1 |
| 20260510030220 | 45 | 355 | 1.7 | 8.7 | 0.00 | 0.12 | 0.00 | 71 | 978.9 |
| 20260510025616 | 45 | 335 | 0.9 | 7.0 | 0.00 | 0.12 | 0.00 | 72 | 978.9 |
| 20260510024506 | 45 | 214 | 0.9 | 5.2 | 0.00 | 0.12 | 0.00 | 71 | 978.7 |
| 20260510023604 | 45 | 343 | 1.7 | 13.0 | 0.00 | 0.12 | 0.00 | 70 | 978.7 |
| 20260510022918 | 46 | 4 | 1.7 | 13.0 | 0.00 | 0.12 | 0.00 | 69 | 978.7 |
| 20260510021806 | 46 | 50 | 1.7 | 9.6 | 0.00 | 0.12 | 0.00 | 67 | 978.4 |
| 20260510020906 | 46 | 91 | 0.9 | 6.1 | 0.00 | 0.12 | 0.00 | 66 | 978.3 |
| 20260510020005 | 46 | 267 | 0.9 | 4.3 | 0.00 | 0.12 | 0.00 | 65 | 978.3 |
| 20260510015617 | 47 | 303 | 1.7 | 6.1 | 0.00 | 0.12 | 0.00 | 64 | 978.1 |
| 20260510014719 | 47 | 47 | 1.7 | 7.0 | 0.00 | 0.12 | 0.00 | 64 | 978.0 |
| 20260510013605 | 47 | 318 | 1.7 | 7.0 | 0.00 | 0.12 | 0.00 | 64 | 977.6 |
| 20260510012705 | 47 | 331 | 0.0 | 8.7 | 0.00 | 0.12 | 0.00 | 65 | 977.4 |
| 20260510011805 | 47 | 58 | 2.6 | 7.0 | 0.00 | 0.12 | 0.00 | 65 | 977.4 |
| 20260510011114 | 47 | 194 | 2.6 | 7.0 | 0.00 | 0.12 | 0.00 | 65 | 977.3 |
| 20260510010216 | 48 | 221 | 0.9 | 4.3 | 0.00 | 0.12 | 0.00 | 66 | 977.0 |
| 20260510005405 | 49 | 248 | 1.7 | 7.0 | 0.00 | 0.12 | 0.00 | 66 | 977.0 |
| 20260510004503 | 49 | 36 | 1.7 | 9.6 | 0.00 | 0.12 | 0.00 | 66 | 976.7 |
| 20260510003605 | 50 | 19 | 1.7 | 9.6 | 0.00 | 0.12 | 0.00 | 67 | 976.8 |
| 20260510002705 | 50 | 66 | 2.6 | 9.6 | 0.00 | 0.12 | 0.00 | 68 | 976.5 |
| 20260510001806 | 50 | 323 | 0.0 | 7.0 | 0.00 | 0.12 | 0.00 | 69 | 976.5 |
| 20260510000905 | 50 | 346 | 2.6 | 4.3 | 0.00 | 0.12 | 0.00 | 70 | 976.2 |
| 20260510000006 | 50 | 60 | 1.7 | 7.0 | 0.00 | 0.12 | 0.00 | 70 | 976.0 |
| 20260509235403 | 50 | 250 | 1.7 | 7.0 | 0.00 | 0.12 | 0.00 | 70 | 976.0 |
| 20260509234503 | 51 | 108 | 1.7 | 12.2 | 0.00 | 0.12 | 0.00 | 69 | 975.6 |
| 20260509233605 | 51 | 100 | 2.6 | 9.6 | 0.00 | 0.12 | 0.00 | 70 | 975.4 |
| 20260509232703 | 51 | 348 | 1.7 | 10.4 | 0.00 | 0.12 | 0.00 | 70 | 975.3 |
| 20260509231806 | 52 | 340 | 3.5 | 9.6 | 0.00 | 0.12 | 0.00 | 70 | 975.3 |